[Iaude] MPEC V208: 2023 VG7 [a=2.02,e=0.54,i=6.0,H=28.3]
    mpec at marsden.cfa.harvard.edu 
    mpec at marsden.cfa.harvard.edu
       
    Sat Nov 11 18:58:13 EST 2023
    
    
  
M.P.E.C. 2023-V208                            Issued 2023 November 11, 23:56 UT
     The Minor Planet Electronic Circulars contain information on unusual
         minor planets, routine data on comets and natural satellites,
         and occasional editorial announcements.  They are published
    on behalf of Division F of the International Astronomical Union by the
          Minor Planet Center, Smithsonian Astrophysical Observatory,
                          Cambridge, MA 02138, U.S.A.
			  
             Prepared using the Tamkin Foundation Computer Network
                              MPC at CFA.HARVARD.EDU
            URL https://www.minorplanetcenter.net/    ISSN 1523-6714
                                    2023 VG7                                    
Observations:
     K23V07G*HC2023 11 11.35131503 38 19.710+26 45 06.00         21.00GVEV208V00
     K23V07G HC2023 11 11.35682603 38 37.650+26 44 17.30               VEV208V00
     K23V07G HC2023 11 11.36235203 38 55.650+26 43 27.90               VEV208V00
     K23V07G HC2023 11 11.36785603 39 13.810+26 42 37.90         21.22GVEV208V00
     K23V07G KC2023 11 11.48173703 45 41.098+26 23 34.40         19.85GVEV208I52
     K23V07G KC2023 11 11.48404403 45 49.226+26 23 09.85         19.92GVEV208I52
     K23V07G KC2023 11 11.48601 03 45 56.17 +26 22 54.6          20.0 RVEV208291
     K23V07G KC2023 11 11.48634403 45 57.402+26 22 44.33         19.82GVEV208I52
     K23V07G KC2023 11 11.48715 03 46 00.14 +26 22 42.0          19.6 RVEV208291
     K23V07G KC2023 11 11.48829 03 46 04.23 +26 22 29.8          20.0 RVEV208291
     K23V07G KC2023 11 11.48863703 46 05.524+26 22 19.20         19.54GVEV208I52
     K23V07G pC2023 11 11.88755504 13 11.16 +24 59 30.2          19.8 GVEV208L01
     K23V07G pC2023 11 11.89462104 13 40.48 +24 57 47.9          19.4 GVEV208L01
     K23V07G pC2023 11 11.89798404 13 54.36 +24 57 00.7          19.4 GVEV208L01
     K23V07G pC2023 11 11.89931204 13 59.93 +24 56 40.9          19.5 GVEV208L01
Observer details:
291 LPL/Spacewatch II.  Observer C. Lejoly.  1.8-m f/2.7 reflector + CCD.
I52 Steward Observatory, Mt. Lemmon Station.  Observer J. K. Hogan.  Measurers
    E. C. Beshore, D. Fay, J. B. Fazekas, D. C. Fuls, A. R. Gibbs, A. D.
    Grauer, H. Groeller, J. K. Hogan, R. A. Kowalski, S. M. Larson, G. J.
    Leonard, D. Rankin, R. L. Seaman, F. C. Shelly, K. W. Wierzchos.  1.0-m
    prime focus + CCD.
L01 Visnjan Observatory, Tican.  Observer K. Korlevic.  1.0-m f/2.9 reflector
    + CCD.
V00 Kitt Peak-Bok.  Observer K. W. Wierzchos.  Measurers M. J. Brucker, C. E.
    Woodward, D. Fay, J. B. Fazekas, D. C. Fuls, A. R. Gibbs, H. Groeller, J.
    K. Hogan, R. A. Kowalski, S. M. Larson, C. Lejoly, G. J. Leonard, R. A.
    Mastaler, R. S. McMillan, D. Rankin, R. L. Seaman, A. Serrano, F. C.
    Shelly, K. W. Wierzchos.  2.25-m reflector + 4x4K mosaic CCD.
Orbital elements:
2023 VG7                                                 Earth MOID = 0.0058 AU
Epoch 2023 Sept. 13.0 TT = JDT 2460200.5                Veres                   
M 329.73000              (2000.0)            P               Q                  
n   0.34287797     Peri.  215.92234     +0.07856663     -0.99372139             
a   2.0216672      Node   229.71209     +0.93728703     +0.10084993             
e   0.5368106      Incl.    5.99405     +0.33958845     -0.04844685             
P   2.87           H   28.32          G   0.15           U   8                  
Residuals in seconds of arc
231111 V00  1.1+  0.1-    231111 I52  0.2-  0.4+    231111 I52  0.3+  0.1-
231111 V00  0.2+  0.0     231111 291  1.7-  0.5+    231111 L01  0.4+  0.2+
231111 V00  1.2-  0.1+    231111 I52  0.3+  0.1-    231111 L01  0.5+  0.8-
231111 V00  0.2-  0.2-    231111 291  2.6-  0.3+    231111 L01  0.8-  0.6+
231111 I52  0.1+  0.2-    231111 291  1.9-  0.6+    231111 L01  0.1-  0.0
Ephemeris:
2023 VG7                 a,e,i = 2.02, 0.54, 6                   q = 0.9364
Date    TT    R. A. (2000) Decl.     Delta      r    Elong.  Phase     V
2023 10 12    00 44 41.7 +25 06 51   0.2030  1.1923   161.2    15.6    26.1
...
2023 10 27    00 52 07.7 +26 43 02   0.1047  1.0919   158.1    19.8    24.6
...
2023 11 04    01 15 11.7 +27 48 04   0.05709 1.0450   157.7    21.1    23.2
...
2023 11 10    02 39 09.2 +28 23 42   0.02410 1.0141   167.7    12.0    21.0
2023 11 11    03 19 35.9 +27 27 40   0.01939 1.0093   169.0    10.8    20.5
2023 11 12    04 21 00.1 +24 34 12   0.01545 1.0047   161.2    18.5    20.2
...
2023 11 18    10 30 45.2 -17 38 55   0.02855 0.9796    70.6   107.8    24.6
...
2023 11 26    11 37 45.3 -23 18 57   0.07259 0.9543    61.3   114.9    27.0
...
2023 12 11    12 10 23.1 -25 12 33   0.1564  0.9357    67.3   103.8    28.0
M. P. C. Staff               (C) Copyright 2023 MPC           M.P.E.C. 2023-V208
    
    
More information about the Iaude
mailing list